This is the latest recevied weather packets stored in our database for station/object K4IR. If no packets are shown the sender has not sent any weather packets the latest 10 day(s).
| Time | Temp. | Humidity | Pressure | Rain* | Wind** | Luminosity | Snow |
|---|---|---|---|---|---|---|---|
| 1788141942 | 25° C | 99% | 1020.2 hPa | 0 mm | - | 0 W/m² | - |
| 1788141338 | 25° C | 99% | 1019.8 hPa | 0 mm | - | 0 W/m² | - |
| 1788140734 | 25° C | 99% | 1020.1 hPa | 0 mm | - | 0 W/m² | - |
| 1788140131 | 25° C | 99% | 1020.1 hPa | 0 mm | - | 0 W/m² | - |
| 1788139526 | 25° C | 99% | 1020.1 hPa | 0 mm | - | 0 W/m² | - |
| 1788138926 | 25° C | 99% | 1019.9 hPa | 0 mm | - | 0 W/m² | - |
| 1788138322 | 25° C | 98% | 1019.6 hPa | 0 mm | - | 0 W/m² | - |
| 1788137719 | 25° C | 98% | 1019.5 hPa | 0 mm | - | 0 W/m² | - |
| 1788137115 | 25.56° C | 98% | 1019.5 hPa | 0 mm | - | 0 W/m² | - |
| 1788136512 | 25.56° C | 98% | 1019.6 hPa | 0 mm | - | 0 W/m² | - |
| 1788135912 | 25.56° C | 98% | 1019 hPa | 0 mm | - | 0 W/m² | - |
| 1788135321 | 25.56° C | 98% | 1019.4 hPa | 0 mm | - | 0 W/m² | - |
| 1788134707 | 26.11° C | 98% | 1019.3 hPa | 0 mm | - | 0 W/m² | - |
| 1788134106 | 26.11° C | 98% | 1019.2 hPa | 0 mm | - | 0 W/m² | - |
| 1788133502 | 26.11° C | 98% | 1019.3 hPa | 0 mm | - | 1 W/m² | - |
| 1788132898 | 26.11° C | 97% | 1019.3 hPa | 0 mm | - | 4 W/m² | - |
| 1788132296 | 26.67° C | 97% | 1019.3 hPa | 0 mm | - | 8 W/m² | - |
| 1788131694 | 26.67° C | 97% | 1019.6 hPa | 0 mm | - | 17 W/m² | - |
| 1788131093 | 26.67° C | 97% | 1019.4 hPa | 0 mm | - | 28 W/m² | - |
| 1788130489 | 26.67° C | 97% | 1019.6 hPa | 0 mm | - | 40 W/m² | - |
| 1788129886 | 26.67° C | 97% | 1019.4 hPa | 0 mm | - | 50 W/m² | - |
| 1788129286 | 26.67° C | 97% | 1019.4 hPa | 0 mm | - | 55 W/m² | - |
| 1788128686 | 26.11° C | 97% | 1019.7 hPa | 0 mm | - | 60 W/m² | - |
| 1788128084 | 26.67° C | 97% | 1019.7 hPa | 0 mm | - | 63 W/m² | - |
| 1788127479 | 26.67° C | 97% | 1019.6 hPa | 0 mm | - | 56 W/m² | - |
* Rain latest hour (hover to see other rain measurements)
** Current wind speed in m/s (hover to see current wind gust speed)